When you browse on this site, cookies collect data to enhance your experience and personalize the content and advertising you see.
Visit our Privacy Policy to learn more. By continuing to use the site, you agree to this use of cookies and data.
  • In Schweiz
  • Länderverzeichnis
  • Für 7 Tage
  • Wassertemperatur
  • Wetterkarte
  • Widgets
  • user-avatar
    Anmelden

    Stündliche Wetter Rangpur

    Heute, 17 Oktober, Donnerstag

    Zeit Temperatur Niederschläge Wind Luftdruck Luftfeuchtigkeit
    00:00 +27°C° 0 mm 1 m/S 757 mmHg 77%
    01:00 +26°C° 0 mm 1 m/S 756 mmHg 79%
    02:00 +26°C° 0 mm 1 m/S 756 mmHg 81%
    03:00 +26°C° 0 mm 2 m/S 756 mmHg 82%
    04:00 +26°C° 0 mm 2 m/S 756 mmHg 83%
    05:00 +25°C° 0 mm 2 m/S 756 mmHg 83%
    06:00 +25°C° 0 mm 2 m/S 756 mmHg 84%
    07:00 +26°C° 0 mm 2 m/S 757 mmHg 81%
    08:00 +28°C° 0 mm 2 m/S 758 mmHg 78%
    09:00 +29°C° 0 mm 2 m/S 758 mmHg 74%
    10:00 +30°C° 0 mm 2 m/S 757 mmHg 70%
    11:00 +31°C° 0 mm 2 m/S 757 mmHg 66%
    12:00 +32°C° 0 mm 2 m/S 756 mmHg 62%
    13:00 +32°C° 0 mm 2 m/S 756 mmHg 61%
    14:00 +32°C° 0 mm 1 m/S 755 mmHg 59%
    15:00 +33°C° 0 mm 1 m/S 754 mmHg 58%
    16:00 +31°C° 0 mm 1 m/S 754 mmHg 62%
    17:00 +30°C° 0 mm 1 m/S 754 mmHg 66%
    18:00 +29°C° 0 mm 1 m/S 754 mmHg 69%
    19:00 +28°C° 0 mm 1 m/S 755 mmHg 70%
    20:00 +26°C° 0 mm 0 m/S 756 mmHg 71%
    21:00 +25°C° 0 mm 0 m/S 756 mmHg 72%
    22:00 +25°C° 0 mm 0 m/S 756 mmHg 73%
    23:00 +27°C° 0 mm 1 m/S 756 mmHg 74%

    Morgen, 18 Oktober, Freitag

    Zeit Temperatur Niederschläge Wind Luftdruck Luftfeuchtigkeit
    00:00 +26°C° 0 mm 1 m/S 756 mmHg 75%
    01:00 +26°C° 0 mm 1 m/S 756 mmHg 77%
    02:00 +26°C° 0 mm 1 m/S 756 mmHg 78%
    03:00 +25°C° 0 mm 1 m/S 756 mmHg 80%
    04:00 +25°C° 0 mm 1 m/S 756 mmHg 80%
    05:00 +25°C° 0 mm 1 m/S 756 mmHg 81%
    06:00 +24°C° 0 mm 1 m/S 756 mmHg 82%
    07:00 +26°C° 0 mm 2 m/S 757 mmHg 78%
    08:00 +27°C° 0 mm 2 m/S 757 mmHg 75%
    09:00 +29°C° 0 mm 2 m/S 758 mmHg 72%
    10:00 +30°C° 0 mm 2 m/S 757 mmHg 68%
    11:00 +31°C° 0 mm 2 m/S 757 mmHg 64%
    12:00 +32°C° 0 mm 2 m/S 757 mmHg 60%
    13:00 +32°C° 0 mm 2 m/S 756 mmHg 58%
    14:00 +32°C° 0 mm 1 m/S 755 mmHg 57%
    15:00 +33°C° 0 mm 1 m/S 755 mmHg 56%
    16:00 +31°C° 0 mm 1 m/S 755 mmHg 59%
    17:00 +30°C° 0 mm 1 m/S 755 mmHg 63%
    18:00 +29°C° 0 mm 1 m/S 755 mmHg 67%
    19:00 +26°C° 0 mm 0 m/S 755 mmHg 68%
    20:00 +26°C° 0 mm 0 m/S 756 mmHg 69%
    21:00 +25°C° 0 mm 0 m/S 756 mmHg 70%
    22:00 +25°C° 0 mm 0 m/S 756 mmHg 71%
    23:00 +27°C° 0 mm 1 m/S 756 mmHg 72%

    übermorgen, 19 Oktober, Samstag

    Zeit Temperatur Niederschläge Wind Luftdruck Luftfeuchtigkeit
    00:00 +26°C° 0 mm 1 m/S 757 mmHg 74%
    01:00 +26°C° 0 mm 1 m/S 756 mmHg 75%
    02:00 +26°C° 0 mm 1 m/S 756 mmHg 77%
    03:00 +25°C° 0 mm 1 m/S 756 mmHg 78%
    04:00 +25°C° 0 mm 1 m/S 756 mmHg 79%
    05:00 +25°C° 0 mm 2 m/S 756 mmHg 81%
    06:00 +25°C° 0 mm 2 m/S 756 mmHg 82%
    07:00 +26°C° 0 mm 2 m/S 757 mmHg 79%
    08:00 +27°C° 0 mm 2 m/S 757 mmHg 77%
    09:00 +29°C° 0 mm 3 m/S 758 mmHg 74%
    10:00 +30°C° 0 mm 3 m/S 758 mmHg 70%
    11:00 +31°C° 0 mm 2 m/S 757 mmHg 66%
    12:00 +32°C° 0 mm 2 m/S 757 mmHg 62%
    13:00 +32°C° 0 mm 2 m/S 756 mmHg 61%
    14:00 +32°C° 0 mm 2 m/S 756 mmHg 60%
    15:00 +32°C° 0 mm 1 m/S 755 mmHg 60%
    16:00 +31°C° 0 mm 1 m/S 755 mmHg 63%
    17:00 +30°C° 0 mm 1 m/S 755 mmHg 67%
    18:00 +28°C° 0 mm 1 m/S 755 mmHg 71%
    19:00 +28°C° 0 mm 1 m/S 756 mmHg 72%
    20:00 +28°C° 0 mm 1 m/S 756 mmHg 73%
    21:00 +27°C° 0 mm 1 m/S 757 mmHg 74%
    22:00 +27°C° 0 mm 1 m/S 757 mmHg 75%
    23:00 +27°C° 0 mm 1 m/S 757 mmHg 75%

    20 Oktober, Sonntag

    Zeit Temperatur Niederschläge Wind Luftdruck Luftfeuchtigkeit
    00:00 +26°C° 0 mm 1 m/S 756 mmHg 76%
    01:00 +26°C° 0 mm 1 m/S 756 mmHg 77%
    02:00 +25°C° 0 mm 1 m/S 756 mmHg 78%
    03:00 +25°C° 0 mm 1 m/S 756 mmHg 79%
    04:00 +25°C° 0 mm 1 m/S 756 mmHg 79%
    05:00 +25°C° 0 mm 1 m/S 756 mmHg 80%
    06:00 +24°C° 0 mm 1 m/S 757 mmHg 80%
    07:00 +26°C° 0 mm 2 m/S 757 mmHg 77%
    08:00 +27°C° 0 mm 2 m/S 758 mmHg 73%
    09:00 +29°C° 0 mm 2 m/S 758 mmHg 70%
    10:00 +30°C° 0 mm 1 m/S 758 mmHg 67%
    11:00 +31°C° 0 mm 1 m/S 757 mmHg 63%
    12:00 +32°C° 0 mm 1 m/S 757 mmHg 60%
    13:00 +32°C° 0 mm 1 m/S 756 mmHg 59%
    14:00 +32°C° 0 mm 1 m/S 756 mmHg 58%
    15:00 +32°C° 0 mm 2 m/S 755 mmHg 57%
    16:00 +31°C° 0 mm 1 m/S 755 mmHg 61%
    17:00 +30°C° 0 mm 1 m/S 755 mmHg 64%
    18:00 +29°C° 0 mm 1 m/S 755 mmHg 67%
    19:00 +28°C° 0 mm 1 m/S 756 mmHg 69%
    20:00 +28°C° 0 mm 1 m/S 756 mmHg 70%
    21:00 +27°C° 0 mm 1 m/S 756 mmHg 72%
    22:00 +27°C° 0 mm 2 m/S 756 mmHg 74%
    23:00 +26°C° 0 mm 2 m/S 756 mmHg 76%

    21 Oktober, Montag

    Zeit Temperatur Niederschläge Wind Luftdruck Luftfeuchtigkeit
    00:00 +26°C° 0 mm 2 m/S 756 mmHg 79%
    01:00 +26°C° 0 mm 1 m/S 755 mmHg 79%
    02:00 +26°C° 0 mm 1 m/S 755 mmHg 79%
    03:00 +25°C° 0 mm 1 m/S 755 mmHg 79%
    04:00 +26°C° 0 mm 1 m/S 755 mmHg 79%
    05:00 +26°C° 0 mm 1 m/S 755 mmHg 79%
    06:00 +26°C° 0 mm 1 m/S 755 mmHg 79%
    07:00 +26°C° 0 mm 1 m/S 756 mmHg 77%
    08:00 +27°C° 0 mm 1 m/S 756 mmHg 75%
    09:00 +26°C° 0 mm 0 m/S 757 mmHg 73%
    10:00 +29°C° 0 mm 1 m/S 756 mmHg 69%
    11:00 +30°C° 0 mm 1 m/S 756 mmHg 65%
    12:00 +31°C° 0 mm 2 m/S 755 mmHg 61%
    13:00 +31°C° 0 mm 2 m/S 755 mmHg 64%
    14:00 +31°C° 0 mm 2 m/S 754 mmHg 66%
    15:00 +30°C° 0 mm 2 m/S 753 mmHg 69%
    16:00 +29°C° 0 mm 2 m/S 753 mmHg 74%
    17:00 +28°C° 0 mm 2 m/S 753 mmHg 78%
    18:00 +27°C° 0 mm 2 m/S 753 mmHg 83%
    19:00 +26°C° 0 mm 2 m/S 754 mmHg 83%
    20:00 +26°C° 0 mm 2 m/S 754 mmHg 83%
    21:00 +26°C° 0 mm 2 m/S 754 mmHg 84%
    22:00 +25°C° 0 mm 2 m/S 754 mmHg 84%
    23:00 +25°C° 0 mm 2 m/S 754 mmHg 85%

    22 Oktober, Dienstag

    Zeit Temperatur Niederschläge Wind Luftdruck Luftfeuchtigkeit
    00:00 +25°C° 0 mm 2 m/S 754 mmHg 86%
    01:00 +25°C° 0 mm 2 m/S 754 mmHg 87%
    02:00 +25°C° 0 mm 1 m/S 754 mmHg 87%
    03:00 +24°C° 0 mm 1 m/S 754 mmHg 88%
    04:00 +24°C° 0 mm 1 m/S 754 mmHg 88%
    05:00 +24°C° 0 mm 1 m/S 754 mmHg 89%
    06:00 +24°C° 0 mm 1 m/S 754 mmHg 89%
    07:00 +25°C° 0 mm 1 m/S 754 mmHg 84%
    08:00 +27°C° 0 mm 1 m/S 755 mmHg 80%
    09:00 +28°C° 0 mm 1 m/S 755 mmHg 75%
    10:00 +29°C° 0 mm 1 m/S 755 mmHg 70%
    11:00 +30°C° 0 mm 2 m/S 754 mmHg 65%
    12:00 +31°C° 0 mm 2 m/S 754 mmHg 60%
    13:00 +31°C° 0 mm 3 m/S 753 mmHg 59%
    14:00 +31°C° 0 mm 3 m/S 752 mmHg 59%
    15:00 +33°C° 0 mm 3 m/S 752 mmHg 58%
    16:00 +30°C° 0 mm 3 m/S 752 mmHg 62%
    17:00 +29°C° 0 mm 2 m/S 752 mmHg 66%
    18:00 +27°C° 0 mm 2 m/S 752 mmHg 70%
    19:00 +27°C° 0 mm 2 m/S 753 mmHg 70%
    20:00 +27°C° 0 mm 1 m/S 753 mmHg 70%
    21:00 +26°C° 0 mm 1 m/S 754 mmHg 71%
    22:00 +26°C° 0 mm 1 m/S 754 mmHg 71%
    23:00 +25°C° 0 mm 1 m/S 754 mmHg 72%
    Mehr zeigen